IW3HBX-3 Weather Reports


Display with metric or nautical units.
time (UTC)temp
F
wind
direction
speed
MPH
gust
MPH
rain 1hr
in
rain 24hr
in
rain mn
in
humidity
%
barometer
mb
20260505003953 59 68 2.0 3.0 0.00 0.00 0.00 85 1015.5
20260505003453 59 71 1.0 2.0 0.00 0.00 0.00 84 1015.5
20260505002952 59 71 0.0 1.0 0.00 0.00 0.00 84 1015.6
20260505002452 59 69 1.0 3.0 0.00 0.00 0.00 84 1015.6
20260505001951 59 60 2.0 3.0 0.00 0.00 0.00 84 1015.6
20260505001451 59 58 2.0 3.0 0.00 0.00 0.00 84 1015.6
20260505000950 59 53 2.0 3.0 0.00 0.00 0.00 83 1015.6
20260505000450 60 67 2.0 3.0 0.00 0.00 0.00 83 1015.7
20260504235950 60 70 1.0 2.0 0.00 0.00 0.00 82 1015.7
20260504235449 60 65 3.0 4.0 0.00 0.00 0.00 82 1015.7
20260504235235 60 66 2.0 4.0 0.00 0.00 0.00 80 1015.8
20260504234949 60 75 2.0 5.0 0.00 0.00 0.00 82 1015.8
20260504234448 60 69 3.0 5.0 0.00 0.00 0.00 81 1015.8
20260504233948 60 66 2.0 4.0 0.00 0.00 0.00 80 1015.8
20260504233448 60 78 3.0 4.0 0.00 0.00 0.00 79 1015.9
20260504232947 60 71 2.0 4.0 0.00 0.00 0.00 79 1016.0
20260504232447 60 65 2.0 3.0 0.00 0.00 0.00 78 1016.0
20260504231946 61 65 2.0 5.0 0.00 0.00 0.00 76 1016.1
20260504231446 61 68 2.0 4.0 0.00 0.00 0.00 76 1016.2
20260504230946 61 73 2.0 4.0 0.00 0.00 0.00 75 1016.3
20260504230447 61 72 2.0 5.0 0.00 0.00 0.00 75 1016.3
20260504225947 61 71 3.0 5.0 0.00 0.00 0.00 75 1016.4
20260504225447 61 66 3.0 5.0 0.00 0.00 0.00 75 1016.4
20260504224947 61 68 4.0 5.0 0.00 0.00 0.00 75 1016.4
20260504224447 62 71 3.0 6.0 0.00 0.00 0.00 74 1016.5
20260504223947 62 67 3.0 5.0 0.00 0.00 0.00 75 1016.4
20260504223447 62 64 2.0 4.0 0.00 0.00 0.00 75 1016.5
20260504222947 62 67 3.0 5.0 0.00 0.00 0.00 75 1016.6
20260504222447 62 65 3.0 4.0 0.00 0.00 0.00 74 1016.6
20260504221947 62 71 2.0 4.0 0.00 0.00 0.00 74 1016.5
20260504221447 62 66 3.0 3.0 0.00 0.00 0.00 73 1016.5
20260504220946 62 65 3.0 4.0 0.00 0.00 0.00 73 1016.6
20260504220446 62 66 2.0 3.0 0.00 0.00 0.00 72 1016.6
20260504215946 62 58 2.0 3.0 0.00 0.00 0.00 72 1016.6
20260504215445 62 63 3.0 4.0 0.00 0.00 0.00 71 1016.7
20260504214945 62 64 3.0 4.0 0.00 0.00 0.00 71 1016.6
20260504214444 62 62 3.0 4.0 0.00 0.00 0.00 70 1016.7
20260504213944 62 62 1.0 3.0 0.00 0.00 0.00 70 1016.6
20260504213444 62 51 2.0 3.0 0.00 0.00 0.00 69 1016.8
20260504213030 62 57 1.0 2.0 0.00 0.00 0.00 69 1016.7
20260504212943 62 57 1.0 2.0 0.00 0.00 0.00 69 1016.7
20260504212443 63 57 1.0 2.0 0.00 0.00 0.00 69 1016.7
20260504211942 63 61 0.0 1.0 0.00 0.00 0.00 68 1016.6
20260504210941 63 64 2.0 3.0 0.00 0.00 0.00 68 1016.6
20260504210441 63 58 2.0 3.0 0.00 0.00 0.00 68 1016.7
20260504205941 63 64 2.0 4.0 0.00 0.00 0.00 68 1016.6
20260504205440 63 65 0.0 2.0 0.00 0.00 0.00 68 1016.6
20260504204940 63 309 1.0 2.0 0.00 0.00 0.00 68 1016.7
20260504204449 64 345 2.0 3.0 0.00 0.00 0.00 67 1016.6
20260504203939 64 66 1.0 1.0 0.00 0.00 0.00 66 1016.5
20260504203439 64 108 0.0 1.0 0.00 0.00 0.00 65 1016.5
20260504202938 64 108 0.0 1.0 0.00 0.00 0.00 65 1016.4
20260504202438 65 108 1.0 2.0 0.00 0.00 0.00 64 1016.4
20260504201937 65 108 1.0 2.0 0.00 0.00 0.00 63 1016.3
20260504201437 65 108 1.0 1.0 0.00 0.00 0.00 63 1016.3
20260504200937 65 108 1.0 2.0 0.00 0.00 0.00 62 1016.3
20260504200436 65 108 0.0 1.0 0.00 0.00 0.00 62 1016.3
20260504195936 65 108 1.0 2.0 0.00 0.00 0.00 62 1016.4
20260504195435 65 108 2.0 2.0 0.00 0.00 0.00 61 1016.4
20260504194935 66 108 1.0 1.0 0.00 0.00 0.00 61 1016.4
20260504194434 66 108 0.0 1.0 0.00 0.00 0.00 61 1016.4
20260504193934 65 108 0.0 0.0 0.00 0.00 0.00 61 1016.3
20260504193434 65 108 0.0 0.0 0.00 0.00 0.00 61 1016.3
20260504192933 65 108 0.0 0.0 0.00 0.00 0.00 61 1016.3
20260504192433 66 108 0.0 1.0 0.00 0.00 0.00 62 1016.2
20260504191932 66 108 0.0 1.0 0.00 0.00 0.00 62 1016.2
20260504191432 66 103 0.0 1.0 0.00 0.00 0.00 62 1016.1
20260504190932 66 128 0.0 1.0 0.00 0.00 0.00 63 1016.1
20260504190432 66 102 1.0 1.0 0.00 0.00 0.00 63 1016.1
20260504185932 67 98 0.0 1.0 0.00 0.00 0.00 64 1015.9
20260504185430 67 90 0.0 1.0 0.00 0.00 0.00 64 1015.9
20260504184930 67 104 1.0 3.0 0.00 0.00 0.00 65 1015.9
20260504184430 67 106 0.0 1.0 0.00 0.00 0.00 67 1015.8
20260504183929 67 103 1.0 3.0 0.00 0.00 0.00 68 1015.8
20260504183429 67 96 1.0 2.0 0.00 0.00 0.00 68 1015.9
20260504182929 67 57 0.0 1.0 0.00 0.00 0.00 68 1015.8
20260504182429 67 69 1.0 2.0 0.00 0.00 0.00 67 1015.9
20260504181929 68 96 1.0 2.0 0.00 0.00 0.00 67 1015.8
20260504181429 68 191 1.0 2.0 0.00 0.00 0.00 66 1015.7
20260504180929 68 110 1.0 2.0 0.00 0.00 0.00 66 1015.7
20260504180429 68 176 1.0 3.0 0.00 0.00 0.00 65 1015.7
20260504175929 69 63 1.0 3.0 0.00 0.00 0.00 64 1015.7
20260504175428 69 130 2.0 3.0 0.00 0.00 0.00 64 1015.5
20260504174928 69 110 2.0 3.0 0.00 0.00 0.00 63 1015.6
20260504173928 70 86 2.0 3.0 0.00 0.00 0.00 61 1015.5
20260504173428 70 46 1.0 2.0 0.00 0.00 0.00 60 1015.6
20260504172928 70 83 2.0 3.0 0.00 0.00 0.00 59 1015.6
20260504172428 70 88 2.0 3.0 0.00 0.00 0.00 59 1015.6
20260504171928 70 78 2.0 4.0 0.00 0.00 0.00 59 1015.5
20260504171428 71 64 2.0 3.0 0.00 0.00 0.00 58 1015.6
20260504170928 71 98 2.0 3.0 0.00 0.00 0.00 57 1015.6
20260504170428 71 113 1.0 3.0 0.00 0.00 0.00 56 1015.6
20260504160426 75 84 2.0 4.0 0.00 0.00 0.00 47 1015.8
20260504150925 75 101 2.0 3.0 0.00 0.00 0.00 55 1015.8
20260504150425 76 95 3.0 4.0 0.00 0.00 0.00 55 1015.8
20260504140925 76 66 2.0 5.0 0.00 0.00 0.00 49 1016.1
20260504140424 76 128 1.0 2.0 0.00 0.00 0.00 50 1016.1
20260504130423 78 58 0.0 1.0 0.00 0.00 0.00 47 1016.5
20260504110421 75 29 3.0 6.0 0.00 0.00 0.00 50 1017.4
20260504100420 72 66 4.0 6.0 0.00 0.00 0.00 52 1018.1
20260504081919 68 56 5.0 6.0 0.00 0.00 0.00 58 1018.3
20260504081419 69 66 4.0 6.0 0.00 0.00 0.00 57 1018.2
20260504080918 68 66 1.0 3.0 0.00 0.00 0.00 56 1018.2
20260504080418 68 65 4.0 6.0 0.00 0.00 0.00 58 1018.3
20260504050415 59 67 0.0 1.0 0.00 0.00 0.00 67 1017.5
20260504045915 58 69 1.0 2.0 0.00 0.00 0.00 69 1017.5
20260504045415 58 303 1.0 1.0 0.00 0.00 0.00 69 1017.5
20260504044915 59 322 0.0 2.0 0.00 0.00 0.00 68 1017.4
20260504044415 59 72 0.0 1.0 0.00 0.00 0.00 68 1017.4
20260504043915 58 71 1.0 2.0 0.00 0.00 0.00 68 1017.3
20260504043415 58 71 1.0 1.0 0.00 0.00 0.00 69 1017.3
20260504042915 57 71 0.0 1.0 0.00 0.00 0.00 69 1017.3
20260504042415 57 72 0.0 2.0 0.00 0.00 0.00 70 1017.2
20260504041914 57 71 0.0 1.0 0.00 0.00 0.00 71 1017.0
20260504041414 57 64 1.0 3.0 0.00 0.00 0.00 71 1017.2
20260504040914 57 64 1.0 4.0 0.00 0.00 0.00 72 1017.0
20260504040414 57 71 2.0 3.0 0.00 0.00 0.00 72 1017.0
20260504035914 57 77 2.0 3.0 0.00 0.00 0.00 72 1017.0
20260504034914 57 72 2.0 4.0 0.00 0.00 0.00 72 1017.0
20260504034414 57 66 1.0 2.0 0.00 0.00 0.00 72 1017.0
20260504033914 57 63 2.0 3.0 0.00 0.00 0.00 72 1017.0
20260504033414 57 73 1.0 2.0 0.00 0.00 0.00 72 1017.1
20260504032914 57 70 1.0 2.0 0.00 0.00 0.00 72 1017.1
20260504032423 57 72 2.0 3.0 0.00 0.00 0.00 72 1017.1
20260504031913 57 83 0.0 1.0 0.00 0.00 0.00 72 1017.1
20260504031413 57 32 0.0 1.0 0.00 0.00 0.00 73 1017.1
20260504030913 57 61 1.0 2.0 0.00 0.00 0.00 73 1017.1
20260504030412 57 62 0.0 0.0 0.00 0.00 0.00 73 1017.1
20260504025912 58 62 0.0 1.0 0.00 0.00 0.00 72 1017.1
20260504025411 58 70 0.0 0.0 0.00 0.00 0.00 72 1017.2
20260504024911 58 70 0.0 1.0 0.00 0.00 0.00 72 1017.2
20260504024411 58 73 2.0 3.0 0.00 0.00 0.00 72 1017.1
20260504023911 58 64 2.0 3.0 0.00 0.00 0.00 72 1017.1
20260504023410 58 65 1.0 3.0 0.00 0.00 0.00 73 1017.2
20260504022910 58 63 1.0 2.0 0.00 0.00 0.00 72 1017.2
20260504021910 58 50 1.0 2.0 0.00 0.00 0.00 73 1017.2
20260504021410 58 306 0.0 1.0 0.00 0.00 0.00 73 1017.2
20260504020910 58 306 0.0 1.0 0.00 0.00 0.00 74 1017.2
20260504020410 58 306 0.0 1.0 0.00 0.00 0.00 74 1017.2
20260504015910 57 306 0.0 0.0 0.00 0.00 0.00 74 1017.1
20260504015409 57 306 0.0 1.0 0.00 0.00 0.00 75 1017.2
20260504014909 58 302 0.0 0.0 0.00 0.00 0.00 75 1017.2
20260504014409 58 336 0.0 0.0 0.00 0.00 0.00 75 1017.2
20260504013909 58 336 0.0 1.0 0.00 0.00 0.00 74 1017.2
20260504013409 58 336 0.0 0.0 0.00 0.00 0.00 74 1017.2
20260504012909 58 336 0.0 0.0 0.00 0.00 0.00 74 1017.1
20260504011909 58 334 0.0 1.0 0.00 0.00 0.00 74 1017.1
20260504011409 58 324 0.0 0.0 0.00 0.00 0.00 74 1017.2
20260504010909 58 324 0.0 0.0 0.00 0.00 0.00 74 1017.2
20260504010409 58 306 0.0 1.0 0.00 0.00 0.00 74 1017.2
20260504005908 58 328 0.0 0.0 0.00 0.00 0.00 74 1017.3
20260504004908 59 328 1.0 2.0 0.00 0.00 0.00 73 1017.3
20260504004408 59 351 1.0 1.0 0.00 0.00 0.00 72 1017.3